OpenBCM V1.13 (Linux)

Packet Radio Mailbox

DB0FHN

[JN59NK Nuernberg]

 Login: GUEST





  
LU1HVK > KEP      19.09.19 08:34l 250 Lines 12370 Bytes #999 (0) @ WW
BID : 32022_LU1HVK
Read: DJ6UX DF7EAV GUEST
Subj: TLE 19 09
Path: DB0FHN<DB0BLO<DB0ERF<IZ3LSV<I0OJJ<VE2PKT<N3HYM<KC9VYU<N7HPX<LU1HVK
Sent: 190919/0523Z 32022@LU1HVK.2594.CBA.ARG.SA LinBPQ6.0.18

>From lu1hvk%lu1hvk.2594.cba.arg.sa@i0ojj.ampr.org Thu Sep 19 07:24:59 2019
Received: from i0ojj.ampr.org by i0ojj.ampr.org (JNOS2.0k.3b2) with SMTP
	id AA27090 ; Thu, 19 Sep 2019 07:24:59 +0200
Message-Id: <32022_LU1HVK@ve2pkt.bbs>
>From: lu1hvk@lu1hvk.2594.cba.arg.sa
X-JNOS-User-Port: Telnet   (ve2pkt @ 144.172.216.109)  -> Sending message

                         _    _   _ _ _   ___     ___  __
                        | |  | | | / | | | \ \   / / |/ /
                        | |  | | | | | |_| |\ \ / /| ' /
                        | |__| |_| | |  _  | \ V / | . \
                        |_____\___/|_|_| |_|  \_/  |_|\_\

     BBS/NODO - CORDOBA (LEONES-FF87UH) - LU1HVK-4 NODO - LU1HVK-3 APRS

+----------------------------------------------------------------------------+
OSCAR 7
1  7530U 74089B   19261.80904149 -.00000042 +00000-0 +17201-4 0  9999
2  7530 101.7554 228.5596 0012085 167.6468 308.6359 12.53639782051827
OSCAR 11 (UoSAT 2)
1 14781U 84021B   19261.86135272  .00000024  00000-0  90738-5 0  9997
2 14781  97.6070 282.1991 0009058  26.6220 333.5457 14.83106469912424
OSCAR 19 (LUSAT)
1 20442U 90005G   19261.91054601 -.00000003 +00000-0 +15330-4 0  9991
2 20442 098.6543 203.7816 0010756 234.9927 125.0248 14.32932874549521
EYESAT A
1 22825U 93061C   19261.78579480 -.00000013 +00000-0 +12836-4 0  9994
2 22825 098.9105 252.5543 0009516 090.6550 269.5722 14.30066463354845
ITAMSAT
1 22826U 93061D   19261.76600215 -.00000012 +00000-0 +13238-4 0  9990
2 22826 098.9045 252.5139 0010031 080.6810 279.5505 14.30400462355068
RADIO ROSTO
1 23439U 94085A   19261.48807264 -.00000044 +00000-0 -35959-4 0  9990
2 23439 064.8187 327.6801 0145468 095.4055 266.3482 11.27568152018244
JAS 2
1 24278U 96046B   19261.38885270 -.00000001  00000-0  35411-4 0  9998
2 24278  98.5514  42.4079 0350386   2.4615 357.8151 13.53092904140209
TECHSAT 1B
1 25397U 98043D   19261.89824003 -.00000007 +00000-0 +15960-4 0  9996
2 25397 098.6936 200.9466 0002231 109.4250 250.7170 14.23670576100773
ISS (ZARYA)
1 25544U 98067A   19262.01113734  .00000369  00000-0  14474-4 0  9992
2 25544  51.6434 255.9293 0007439  62.7168  35.1797 15.50092659189814
PCSAT
1 26931U 01043C   19261.08815369 -.00000034 +00000-0 +18853-4 0  9995
2 26931 067.0504 127.8338 0007452 271.2819 088.7429 14.30552472937971
SAUDISAT 1C
1 27607U 02058C   19261.24541656 -.00000029 +00000-0 +16815-4 0  9996
2 27607 064.5544 129.6821 0076917 238.7949 120.5599 14.75571696900419
CUTE-1
1 27844U 03031E   19261.95737116 +.00000027 +00000-0 +31817-4 0  9993
2 27844 098.6853 268.7947 0010823 120.8269 239.3975 14.22194708841369
CUBESAT XI 4
1 27848U 03031J   19261.83506950 +.00000015 +00000-0 +26673-4 0  9995
2 27848 098.6929 269.1936 0010557 131.6402 228.5681 14.21787806841206
MOZHAYETS 4
1 27939U 03042A   19261.79968888  .00000079  00000-0  22682-4 0  9991
2 27939  98.0541  35.8874 0013849 132.4336 227.8041 14.66802630854042
CUBESAT XI 5
1 28895U 05043F   19261.93374107 +.00000090 +00000-0 +26088-4 0  9994
2 28895 097.9726 041.5717 0017982 063.0898 297.2140 14.63690799740741
CUTE-1.7+APD II
1 32785U 08021C   19261.85940956  .00000158  00000-0  22686-4 0  9993
2 32785  97.5544 257.2472 0012108 323.2878  36.7509 14.88344718617399
DELFI C3
1 32789U 08021G   19261.71153793  .00000441  00000-0  33386-4 0  9991
2 32789  97.4562 308.5667 0012705 163.4112 196.7534 15.07110664620826
SEEDS
1 32791U 08021J   19261.78953598 +.00000107 +00000-0 +16238-4 0  9998
2 32791 097.5308 263.2408 0011854 294.3678 065.6303 14.90868958617756
YUBELEINY
1 32953U 08025A   19261.87905404  .00000020  00000-0  75656-4 0  9998
2 32953  82.4985  87.4321 0018807 289.7849  70.1196 12.43091240513768
PRISM (HITOMI)
1 33493U 09002B   19261.85560629 +.00000341 +00000-0 +35395-4 0  9990
2 33493 098.1196 186.3038 0014033 236.1147 123.8739 14.96727403578929
KKS-1 (KISEKI)
1 33499U 09002H   19261.90514977 +.00000059 +00000-0 +16676-4 0  9994
2 33499 098.3445 103.5311 0007885 274.3127 085.7179 14.75462242572391
SWISSCUBE
1 35932U 09051B   19261.93975517 +.00000103 +00000-0 +34418-4 0  9990
2 35932 098.5972 070.6624 0006624 238.1623 121.8930 14.56309529530165
BEESAT
1 35933U 09051C   19261.93718103 +.00000071 +00000-0 +27116-4 0  9998
2 35933 098.5992 072.4576 0004706 252.5845 107.4838 14.56395430530230
ITUPSAT 1
1 35935U 09051E   19261.42944992 +.00000064 +00000-0 +25954-4 0  9991
2 35935 098.6101 072.1652 0007025 252.7874 107.2554 14.55551890529951
XIWANG-1 (HOPE-1)
1 36122U 09072B   19261.70137416 -.00000024 +00000-0 +46183-4 0  9993
2 36122 100.0759 259.7672 0007949 131.3800 228.7986 13.16351397468987
TISAT 1
1 36799U 10035E   19261.48101403  .00000120  00000-0  18254-4 0  9990
2 36799  98.1677  56.7441 0013160 140.4769 219.7410 14.91155291498444
JUGNU
1 37839U 11058B   19258.11680575 +.00000309 +00000-0 +22467-4 0  9990
2 37839 019.9604 158.5532 0018945 221.4669 284.6732 14.12658347409665
SRMSAT
1 37841U 11058D   19261.23339685 +.00000304 +00000-0 +22066-4 0  9993
2 37841 019.9709 198.3241 0012042 122.2851 228.8844 14.10638895409530
M-CUBED/EXP-1 PRIME
1 37855U 11061F   19261.44636487  .00000724  00000-0  44090-4 0  9992
2 37855 101.7120 204.1414 0173082 164.7172 195.9362 15.05581093430589
HORYU 2
1 38340U 12025D   19261.85617824 +.00000117 +00000-0 +25143-4 0  9996
2 38340 098.3214 303.1755 0011440 184.1315 175.9801 14.75748695384343
STRAND 1
1 39090U 13009E   19261.81925337 +.00000015 +00000-0 +20481-4 0  9996
2 39090 098.4804 106.1986 0009643 022.0931 338.0668 14.35096973343580
SOMP
1 39134U 13015E   19261.91815391 +.00000781 +00000-0 +44755-4 0  9991
2 39134 064.8620 081.6057 0035671 288.9968 070.7295 15.20317858354234
BEESAT 3
1 39135U 13015F   19261.93861291 +.00000446 +00000-0 +31824-4 0  9995
2 39135 064.8677 101.1472 0033434 298.9546 060.8229 15.17598196353850
BEESAT 2
1 39136U 13015G   19261.94482376 +.00000544 +00000-0 +37265-4 0  9994
2 39136 064.8682 105.2129 0025149 303.7518 056.1211 15.17017927353777
CUBEBUG 1
1 39153U 13018D   19261.20187062  .00000153  00000-0  26957-4 0  9991
2 39153  97.9806 358.8244 0015590 261.1071  98.8376 14.80594459345354
ZACUBE
1 39417U 13066B   19261.24557459 +.00000140 +00000-0 +23802-4 0  9994
2 39417 097.5627 269.6030 0060518 093.7523 267.0613 14.81147471314592
TRITON 1
1 39427U 13066M   19261.48165929 +.00000138 +00000-0 +30263-4 0  9994
2 39427 097.6865 233.2364 0112543 231.1917 127.9198 14.67878488311611
GOMX 1
1 39430U 13066Q   19261.77891337  .00000138  00000-0  34278-4 0  9999
2 39430  97.7539 212.3032 0150967 324.4112  34.7094 14.59284629310033
HUMSAT D
1 39433U 13066T   19261.07817121 +.00000407 +00000-0 +44908-4 0  9994
2 39433 097.5454 304.8106 0030577 358.7508 001.3630 14.92248630315526
CUBEBUG 2
1 39440U 13066AA  19261.95662762 +.00000128 +00000-0 +24660-4 0  9991
2 39440 097.6077 254.9710 0081067 144.3353 216.3312 14.75885188312381
FUNCUBE 1
1 39444U 13066AE  19261.93813350 +.00000184 +00000-0 +28802-4 0  9998
2 39444 097.5602 272.2898 0059641 085.1817 275.6203 14.81973383313007
UWE-3
1 39446U 13066AG  19261.93814865 +.00000142 +00000-0 +25292-4 0  9996
2 39446 097.5844 262.0707 0071387 118.4340 242.4090 14.78420234312301
SPROUT
1 39770U 14029E   19261.52740591  .00000489  00000-0  60113-4 0  9990
2 39770  97.8876   4.2449 0009172 136.9375 223.2563 14.87421336288481
UNISAT 6
1 40012U 14033C   19261.86257260  .00000103  00000-0  22701-4 0  9993
2 40012  97.7446 124.4463 0058693 159.1323 201.2301 14.74006403282263
DUCHIFAT 1
1 40021U 14033M   19261.84227754 +.00000198 +00000-0 +26012-4 0  9999
2 40021 097.9229 186.7399 0014303 104.0194 256.2615 14.90681165285272
QB50P1
1 40025U 14033R   19261.83444515 +.00000183 +00000-0 +25437-4 0  9992
2 40025 097.9029 181.3604 0013745 113.3623 246.9041 14.88981674284524
CHUBUSAT 1
1 40300U 14070C   19261.77273822  .00000495  00000-0  24448-4 0  9990
2 40300  97.3206 333.5987 0021086  90.5619  58.2604 15.22169265270026
NUDT-PHONESAT
1 40900U 15049B   19261.82771531  .00001346  00000-0  60150-4 0  9995
2 40900  97.4363 270.2688 0011649 216.6942 226.0538 15.23035753221680
ZDPS 2A
1 40901U 15049C   19261.90946242 +.00000400 +00000-0 +23078-4 0  9996
2 40901 097.4611 266.4098 0011877 239.7753 207.7958 15.17828967221220
ZDPS 2B
1 40902U 15049D   19261.74719087  .00000757  00000-0  40859-4 0  9995
2 40902  97.4559 263.6726 0011960 238.4759 209.0050 15.17680911221171
XW-2A
1 40903U 15049E   19261.79404532  .00001328  00000-0  33011-4 0  9994
2 40903  97.3290 305.0478 0013779 165.1830 254.6996 15.42088002224443
KAITUO 1A
1 40904U 15049F   19261.78729458  .00000315  00000-0  20162-4 0  9999
2 40904  97.4691 262.2332 0013043 248.5869 236.7749 15.15429966220941
OBJECT G
1 40905U 15049G   19261.80071010  .00000497  00000-0  30677-4 0  9990
2 40905  97.4741 259.7023 0014208 242.1533 242.1842 15.14343696220813
XW-2C
1 40906U 15049H   19261.83452726  .00000164  00000-0  12057-4 0  9994
2 40906  97.4702 262.4010 0013205 239.0690 243.1070 15.15748286220957
XW-2D
1 40907U 15049J   19261.85985941 +.00000611 +00000-0 +35314-4 0  9995
2 40907 097.4683 262.1064 0012646 234.6962 210.7762 15.15945640220976
LILACSAT 2
1 40908U 15049K   19261.86803265 +.00000467 +00000-0 +29416-4 0  9990
2 40908 097.4810 260.8453 0014485 242.4823 201.9302 15.13848973220759
XW-2F
1 40910U 15049M   19261.86581683  .00000831  00000-0  44849-4 0  9992
2 40910  97.4640 264.2467 0013388 225.9488 219.6686 15.17417236220995
XW-2B
1 40911U 15049N   19261.83736291  .00000197  00000-0  13781-4 0  9993
2 40911  97.4704 262.7498 0012482 235.5056 245.8216 15.15870863220869
KAITUO 1B
1 40912U 15049P   19261.80542824  .00000705  00000-0  36130-4 0  9996
2 40912  97.4505 267.9741 0013901 205.8169 148.0034 15.19741714221295
